CZ-7A R/B, 60607

Orbit data source: Space-Track

CZ-7A R/B, 60607 is space debris in HEO originally from a launch on Thu, 22 Aug 2024 UTC launched from the Wenchang Satellite Launch Center (WSC). Debris objects in space refer to the collection of defunct objects orbiting the Earth. Examples of debris include non-operational satellites, rocket bodies, and fragments generated from explosions, collisions, or faulty payload assembly.

Loading next visibility...
CZ-7A R/B details
Identifier
60607, 2024-151B
Orbit
HEO
Last TLE update4 months ago
Origin
Flag of CNCASC (CN / PRC)
ManufacturerCALT
MissionSpacecraft
Bus & MotorCZ-3A STAGE 3, Unknown motor
Mass~2,800 kg wet, ~2,800 kg dry
Launch date (UTC)
2024-08-22 (5 months ago)
Launch vehicleUnknown
Launch site
Wenchang Satellite Launch Center (WSC)
Object type
Payload
Rocket body
Debris
Shape & HBRUnknown
Radar Cross SectionLarge (>1 m²)

Expand to show TLE details & history

TLE from 4 months ago
0 CZ-7A R/B
1 60607U 24151B   24261.03072416  .01161033  20484-5  27794-2 0  9999
2 60607  14.6562 169.5289 6954656 190.0106 140.9887  2.77671165   530
Epoch: 2024-09-17T00:44Z
Definitive object data (Epoch: 2024-09-17T00:44:14.567Z)
Latitude0.00022°
Longitude162.05089°
Altitude28,678.843 km
Speed2.025 km/s
True Right ascension11h 18m 15s
True Declination0° 00' 01"
Sunlit
Object was in daylight at TLE epoch
Visualization TLE readout
Latitude-0.27849°
Longitude-118.79033°
Altitude4,141.342 km
Speed5.786 km/s
Apparent Right ascension17h 46m 49s
Apparent Declination-16° 46' 36"
Sunlit
Object is in daylight
Visualization observer readout
Local Sidereal Time08:32:58
Azimuth69.411° E
Elevation-47.298°
Doppler factor1
Orbital elements
Apogee altitude29,882.813 km
Perigee altitude134.945 km
Semi-major axis21,387.016 km
Eccentricity0.6954656
Inclination14.6562°
RAAN169.5289°
Arg. of periapsis190.0106°
True anomaly170.02557°
Mean anomaly140.9887°
Eccentric anomaly156.73057°
Mean motion0.69393 °/min
BSTAR0.0027794
Orbital period518.78 mins
Loading maneuver chart data...
Loading historical data...
Loading historical data...
Loading historical data...
Loading historical data...
Loading historical data...
Loading historical data...
Loading historical data...
Other satellites on launch #151 in the year 2024 (2024-08-22 UTC)

CZ-7A R/B Visibility forecast

Observer location: undefined°, undefined

Span
Click to sort rows by Start time (UTC) header in descending order
Start Az.
Max El. time (UTC)
Max El. Az.
Max El.
End time (UTC)
End Az.
131 mins2025-01-15 09:31:21.421Z224.812° SW2025-01-15 10:11:21.421Z166.996° S33.234°2025-01-15 11:42:21.421Z122.961° SE
102 mins2025-01-15 14:50:21.421Z253.022° W2025-01-15 15:50:21.421Z225.825° WSW19.8°2025-01-15 16:32:21.421Z190.32° SSW
59 mins2025-01-16 06:54:21.421Z168.45° S2025-01-16 07:10:21.421Z135.031° SSE18.897°2025-01-16 07:53:21.421Z107.36° ESE
|